Location: Ammerl�gen
(47.2167°N, 9.6000°E)
Time: 16:13:41
(UTC+00:00)

Cosmos 1943 - Pass Details

Date: 21 April 2021
Orbit: 834 x 849 km, 71.0° (Epoch: 06 May)

Event Time Altitude Azimuth Distance (km) Brightness Sun altitude
Rises 21:56:56 0° 332° (NNW) 3,395 7.6 -27.8°
Reaches altitude 10° 21:59:22 10° 332° (NNW) 2,458 6.6 -27.9°
Enters shadow 22:04:50 82° 288° (WNW) 852 3.1 -28.3°
